TimeEDT,TemperatureF,Dew PointF,Humidity,Sea Level PressureIn,VisibilityMPH,Wind Direction,Wind SpeedMPH,Gust SpeedMPH,PrecipitationIn,Events,Conditions,WindDirDegrees,DateUTC
12:54 AM,45.0,37.0,74,29.54,10.0,WSW,9.2,-,0.01,,Overcast,240,2011-10-17 04:54:00
1:54 AM,46.0,27.0,47,29.54,10.0,WNW,8.1,20.7,N/A,,Overcast,300,2011-10-17 05:54:00
2:54 AM,44.1,30.0,58,29.53,10.0,SSW,5.8,-,N/A,,Mostly Cloudy,210,2011-10-17 06:54:00
3:54 AM,42.1,33.1,70,29.52,10.0,SSW,6.9,-,N/A,,Clear,210,2011-10-17 07:54:00
4:54 AM,43.0,30.9,62,29.51,10.0,SSW,8.1,-,N/A,,Overcast,210,2011-10-17 08:54:00
5:54 AM,44.1,30.9,60,29.50,10.0,SW,10.4,-,N/A,,Overcast,220,2011-10-17 09:54:00
6:54 AM,46.0,30.9,56,29.49,10.0,SW,8.1,-,N/A,,Overcast,230,2011-10-17 10:54:00
7:54 AM,46.0,32.0,58,29.50,10.0,SW,8.1,-,N/A,,Overcast,230,2011-10-17 11:54:00
8:54 AM,48.0,33.1,56,29.51,10.0,WSW,11.5,20.7,N/A,,Mostly Cloudy,250,2011-10-17 12:54:00
9:54 AM,48.0,34.0,58,29.51,10.0,WSW,10.4,20.7,N/A,,Mostly Cloudy,240,2011-10-17 13:54:00
10:54 AM,48.9,33.1,54,29.52,10.0,West,12.7,19.6,N/A,,Overcast,260,2011-10-17 14:54:00
11:54 AM,48.9,33.1,54,29.53,10.0,West,11.5,20.7,N/A,,Overcast,280,2011-10-17 15:54:00
12:54 PM,50.0,33.1,52,29.54,10.0,West,9.2,23.0,N/A,,Overcast,260,2011-10-17 16:54:00
1:54 PM,48.9,33.1,54,29.55,10.0,West,10.4,24.2,N/A,,Overcast,280,2011-10-17 17:54:00
2:54 PM,48.9,34.0,56,29.56,10.0,West,9.2,-,N/A,,Overcast,270,2011-10-17 18:54:00
3:54 PM,48.9,35.1,59,29.57,10.0,WSW,15.0,21.9,N/A,,Mostly Cloudy,240,2011-10-17 19:54:00
4:54 PM,48.9,34.0,56,29.58,10.0,WSW,8.1,20.7,N/A,,Overcast,250,2011-10-17 20:54:00
5:54 PM,48.9,34.0,56,29.61,10.0,West,8.1,20.7,N/A,,Overcast,270,2011-10-17 21:54:00
6:54 PM,48.0,36.0,63,29.63,10.0,West,8.1,-,0.00,,Overcast,280,2011-10-17 22:54:00
7:54 PM,46.9,37.0,68,29.65,10.0,West,5.8,-,N/A,,Overcast,260,2011-10-17 23:54:00
8:54 PM,46.9,37.0,68,29.66,10.0,Calm,Calm,-,N/A,,Overcast,0,2011-10-18 00:54:00
9:54 PM,46.9,37.0,68,29.68,10.0,SW,4.6,-,N/A,,Overcast,230,2011-10-18 01:54:00
10:54 PM,46.4,37.4,71,29.67,10.0,WSW,4.6,-,N/A,,Overcast,240,2011-10-18 02:54:00
11:54 PM,46.9,36.0,66,29.69,10.0,WSW,5.8,-,N/A,,Overcast,240,2011-10-18 03:54:00